Regional Weather Roundup
Issued by NWS

Home | Current Version | Previous Version | Graphics & Text | Print | Product List | Glossary On
Versions: 1 2 3 4 5 6 7 8 9 10 11 12 13 14 15 16 17 18 19 20 21 22 23 24 25 26 27
000
ASUS45 KBOI 161510
RWRID
WEATHER ROUNDUP FOR IDAHO
NATIONAL WEATHER SERVICE BOISE ID
900 AM MDT WED APR 16 2014

NOTE: "FAIR" INDICATES FEW OR NO CLOUDS BELOW 12000 FEET
WITH NO SIGNIFICANT WEATHER AND/OR OBSTRUCTIONS TO VISIBILITY

IDZ012-014-161600-
SOUTHWEST IDAHO


CITY           SKY/WX    TMP DP  RH WIND       PRES   REMARKS
BOISE          MOSUNNY   41  22  46 CALM      30.07R
CALDWELL       MOSUNNY   39  23  52 CALM      30.10R
MOUNTAIN HOME  CLOUDY    43  21  41 NW12      30.05R
$$

IDZ016-017-161600-
SOUTHCENTRAL IDAHO


CITY           SKY/WX    TMP DP  RH WIND       PRES   REMARKS
BURLEY         MOSUNNY   41  18  39 W7        30.04R
JEROME         PTSUNNY   40  19  43 SW7       30.05R
TWIN FALLS     PTSUNNY   45  16  31 W15       30.05R
$$

IDZ019>023-161600-
SOUTHEAST IDAHO


CITY           SKY/WX    TMP DP  RH WIND       PRES   REMARKS
IDAHO FALLS    MOSUNNY   37  17  44 CALM      30.04R
POCATELLO      SUNNY     41  17  38 CALM      30.05S
REXBURG        SUNNY     32  19  58 CALM      30.04R
$$

IDZ006-010-011-018-031-032-161600-
CENTRAL IDAHO MOUNTAINS


CITY           SKY/WX    TMP DP  RH WIND       PRES   REMARKS
MCCALL         CLOUDY    30  20  66 CALM      30.03R
HAILEY         MOSUNNY   36  10  35 CALM      30.05S
STANLEY          N/A     22  10  60 E3        30.04S
SALMON         MOSUNNY   34  21  60 N6        30.04S WCI  29
CHALLIS        SUNNY     34  15  46 CALM      30.04S
$$

IDZ002-004-006-007-026-161600-
NORTHERN IDAHO


CITY           SKY/WX    TMP DP  RH WIND       PRES   REMARKS
LEWISTON       CLOUDY    46  29  51 NE3       30.07R
LOWELL           N/A     40  36  86 CALM      30.13R
COEUR D`ALENE  CLOUDY    41  30  65 S9        30.03R
MULLAN PASS    CLOUDY    26  23  88 VRB3      29.95R
$$



USA.gov is the U.S. government's official web portal to all federal, state and local government web resources and services.